Location: Aldenham
(51.6667°N, 0.3500°W)
Time: 07:28:29
(UTC+00:00)

Explorer 7 - Pass Details

Date: 16 February 2026
Orbit: 430 x 541 km, 50.2° (Epoch: 12 March)

Event Time Altitude Azimuth Distance (km) Brightness Sun altitude
Rises 18:57:08 0° 271° (W) 2,509 12.1 -15.9°
Reaches altitude 10° 18:59:16 10° 269° (W) 1,652 10.6 -16.3°
Maximum altitude 19:02:59 70° 187° (S) 528 6.7 -16.8°
Enters shadow 19:04:19 38° 114° (ESE) 775 7.1 -17.0°
Drops below altitude 10° 19:06:52 10° 103° (ESE) 1,721 - -17.4°
Sets 19:09:07 0° 101° (E) 2,626 - -17.8°
